Eureka, Nunavut

6:18 PM CDT on June 24, 2017 (GMT -0500)
Eureka

Weather History for CWEU - February, 2014

Change the Weather History Date:

Friday, February 7, 2014

  Actual Average Record
Temperature  
Mean Temperature -34 °F -  
Max Temperature -28 °F -31 °F -2 °F (2004)
Min Temperature -41 °F -44 °F -56 °F (2011)
Degree Days  
Heating Degree Days 100    
Moisture  
Dew Point -43 °F    
Average Humidity 64    
Maximum Humidity 74    
Minimum Humidity 44    
Precipitation  
Precipitation 0.00 in 0.00 in - ()
Sea Level Pressure  
Sea Level Pressure 29.85 in    
Wind  
Wind Speed 0 mph ()    
Max Wind Speed 4 mph    
Max Gust Speed -    
Visibility 15.0 miles    
Events Snow    
Averages and records for this station are not official NWS values.
T = Trace of Precipitation, MM = Missing Value Source: Averaged Metar Reports

Daily Weather History Graph

Daily Weather History Graph

Search for Another Location

Airport or City:

Trip Planner

Search our weather history database for the weather conditions in past years. The results will help you decide how hot, cold, wet, or windy it might be!

Date:

Astronomy

Dec. 31, 1969 Rise Set
Actual Time Sun does not set Sun does not set
Civil Twilight 10:21 AM CST 1:36 PM CST
Nautical Twilight 7:08 AM CST 4:50 PM CST
Astronomical Twilight 4:48 AM CST 7:11 PM CST
Moon No Moon Rise No Moon Set
Length of Visible Light 3h 14m
Length of Day
0h 00m
First Quarter, 59% of the Moon is Illuminated
Feb 7
First Quarter
Feb 14
Full
Feb 22
Last Quarter
Mar 1
New
Mar 8
First Quarter

Hourly Weather History & Observations

Time (CST) Temp. Windchill Dew Point Humidity Pressure Visibility Wind Dir Wind Speed Gust Speed Precip Events Conditions
12:00 AM -32 °F - -41 °F 44% 29.85 in 15 mi Calm Calm - - Snow Snow
12:00 AM -32.8 °F - -40.0 °F 68% 29.85 in 15.0 mi Calm Calm - N/A   Partly Cloudy
1:00 AM -34.6 °F - -41.8 °F 68% 29.85 in 15.0 mi Calm Calm - N/A   Scattered Clouds
2:00 AM -32.8 °F - -40.0 °F 68% 29.85 in 15.0 mi Calm Calm - N/A   Partly Cloudy
3:00 AM -34.6 °F - -43.6 °F 61% 29.86 in 15.0 mi NNW 2.3 mph - N/A   Partly Cloudy
4:00 AM -31.0 °F - -40.0 °F 62% 29.85 in 15.0 mi Calm Calm - N/A   Clear
5:00 AM -31.0 °F - -38.2 °F 68% 29.85 in 15.0 mi Calm Calm - N/A   Mostly Cloudy
6:00 AM -31 °F - -39 °F 45% 29.84 in 15 mi Calm Calm - - Snow Snow
6:00 AM -31.0 °F - -40.0 °F 62% 29.84 in 15.0 mi Calm Calm - N/A   Overcast
7:00 AM -31.0 °F - -40.0 °F 62% 29.84 in 15.0 mi Calm Calm - N/A   Mostly Cloudy
8:00 AM -31.0 °F - -40.0 °F 62% 29.84 in 15.0 mi Calm Calm - N/A   Mostly Cloudy
9:00 AM -34.6 °F - -41.8 °F 68% 29.85 in 15.0 mi SE 2.3 mph - N/A   Mostly Cloudy
10:00 AM -36.4 °F - -43.6 °F 67% 29.84 in 15.0 mi Calm Calm - N/A   Mostly Cloudy
11:00 AM -36.4 °F -49.4 °F -45.4 °F 61% 29.84 in 15.0 mi SE 3.5 mph - N/A   Partly Cloudy
12:00 PM -35 °F - -42 °F 50% 29.85 in 15 mi Calm Calm - - Snow Light Snow
12:00 PM -34.6 °F - -41.8 °F 68% 29.85 in 15.0 mi Calm Calm - N/A   Partly Cloudy
1:00 PM -38.2 °F - -45.4 °F 67% 29.85 in 15.0 mi Calm Calm - N/A   Partly Cloudy
2:00 PM -38.2 °F - -43.6 °F 74% 29.85 in 15.0 mi Calm Calm - N/A   Clear
3:00 PM -36.4 °F - -45.4 °F 61% 29.86 in 15.0 mi ESE 2.3 mph - N/A   Clear
4:00 PM -38.2 °F - -45.4 °F 67% 29.86 in 15.0 mi Calm Calm - N/A   Clear
5:00 PM -38.2 °F - -45.4 °F 67% 29.86 in 15.0 mi Calm Calm - N/A   Clear
6:00 PM -40 °F - -47 °F 51% 29.86 in 15 mi Calm Calm - -  
6:00 PM -40.0 °F - -47.2 °F 67% 29.86 in 15.0 mi East 2.3 mph - N/A   Clear
7:00 PM -40.0 °F - -45.4 °F 74% 29.86 in 15.0 mi Calm Calm - N/A   Clear
8:00 PM -41.8 °F - -47.2 °F 74% 29.86 in 15.0 mi Calm Calm - N/A   Clear
9:00 PM -40.0 °F - -45.4 °F 74% 29.86 in 15.0 mi Calm Calm - N/A   Clear